Atlantic - Newfoundland: Past 24 Hour Conditions

 

Natashquan Airport

02:00 AM EDT 03 August 2015
Disclaimer

This table is a summary of hourly weather conditions for the past 24 hours.
Please note that these observations might not always be representative of weather conditions over their associated marine area.

Date / Time
(EDT)
Wind(knots) Conditions Visibility(km) Pressure(kPa) Air tempC) Relative humidity(%) Dew pointC)
03 August 2015
2:00 W 10 gust 15 Clear 16 100.6 14 90 13
1:00 W 11 gust 17 Clear 16 100.6 14 89 13
0:00 W 10 Clear 16 100.5 14 90 13
02 August 2015
23:00 W 10 gust 15 Clear 16 100.4 15 86 12
22:00 W 15 gust 20 Cloudy 16 100.4 15 81 12
21:00 W 16 gust 25 Cloudy 16 100.4 17 75 12
20:00 W 16 gust 21 Mostly Cloudy 16 100.4 16 75 12
19:00 W 12 Mainly Sunny 16 100.3 16 80 13
18:00 WSW 15 gust 23 Partly Cloudy 16 100.2 18 73 13
17:00 WSW 10 Mainly Sunny 16 100.3 17 83 14
16:00 SW 10 Partly Cloudy 16 100.2 17 82 14
15:00 WSW 10 Sunny 16 100.2 17 82 14
14:00 SW 9 Mainly Sunny 16 100.2 17 85 15
13:00 WSW 8 Mist 8 100.2 15 94 14
12:00 WSW 12 Mist 4 100.2 15 95 14
11:00 WSW 7 Mist 8 100.2 15 97 14
10:00 WSW 8 Mist 4 100.2 15 95 14
9:00 WSW 9 Mist 4 100.2 15 96 15
8:00 WSW 10 Cloudy 16 100.1 16 92 14
7:00 SW 6 Cloudy 16 100.1 15 95 15
6:00 SW 7 Cloudy 16 100.1 15 96 15
5:00 SW 7 Light Rain 16 100.1 15 97 14
4:00 SSW 8 Mist 8 100.0 15 97 15
3:00 S 8 Mist 5 100.0 15 97 14
2:00 S 7 Cloudy 15 100.1 15 97 14

Zoom-in to make a selection

Map of Atlantic - Newfoundland marine weather areas Southwestern Grand Banks - 44138 Banquereau - 44139 Tail of the Bank - 44140 Nickerson Bank - 44251 Northeast Burgeo Bank - 44255 Blanc-Sablon Airport Cap Whittle Chevery Natashquan Airport Heath Point Miscou Island Grand Étang Ingonish Beach North Mountain St.Paul Island J.A. Douglas McCurdy Sydney Airport Charlottetown Airport East Point North Cape Argentia Bonavista Burgeo Cape Race Corner Brook Daniel's Harbour Englee Ferolle Point La Scie Port aux Basques Rocky Harbour Sagona Island St. Anthony Airport St. John's Int'l Airport St. Lawrence Stephenville Airport Twillingate Winterland Wreckhouse Cartwright Airport Mary's Harbour Grates Cove Pool's Island Marticot Island Long Pond Eskasoni (First Nations) Îles de la Madeleine Airport
Legend:
buoy Buoy
land station Land Station

Atlantic - Newfoundland Area

Another Region

What we are doing

Date modified: